www.pogodaiklimat.ru
ПОГОДА в Южно-Сухокумске

Архив погоды в Южно-Сухокумске (Дагестан, Россия)

Время
(UTC), дата
21 23.06
00 24.06
03 24.06
06 24.06
09 24.06
12 24.06
15 24.06
18 24.06
21 24.06
00 25.06
03 25.06
06 25.06
09 25.06
12 25.06
15 25.06
18 25.06
21 25.06
00 26.06
03 26.06
06 26.06
09 26.06
12 26.06
15 26.06
18 26.06
21 26.06
00 27.06
03 27.06
06 27.06
09 27.06
12 27.06
15 27.06
18 27.06
21 27.06
00 28.06
03 28.06
06 28.06
09 28.06
12 28.06
15 28.06
18 28.06
21 28.06
00 29.06
03 29.06
06 29.06
09 29.06
12 29.06
15 29.06
18 29.06
21 29.06
00 30.06
03 30.06
06 30.06
09 30.06
12 30.06
15 30.06
Ветер
(напр.,м/с)
Видим. Явления Облачность Т
(С)
Тd
(С)
f
(%)
Тe
(С)
Тes
(С)
Комфортность P
(гПа)
Po
(гПа)
Тmin
(С)
Tmax
(С)
R
(мм)
R24
(мм)
S
(см)
СЗ 7-13
{14}
20 км 9/9 600 м
[Sc]
+17.0 +12.7 76 +16 +16 1010.2 1008.0
штиль 0
{14}
4000 м в посл. час гроза {ливн. дождь} 8/8 600 м
[Sc]
+15.9 +15.9 100 +16 +16 1010.0 1007.7
З 4 4000 м дымка 6/0
[Ac trans]
+16.0 +15.8 99 +15 +16 1011.6 1009.3 +15.2 7
С 2 10 км ясно +21.1 +14.3 65 +24 +36 комфорт 1010.2 1008.0
СВ 2 10 км 4/0
[Ac trans]
+26.0 +10.6 38 +27 +39 жарко 1008.9 1006.7
СВ 2 10 км 8/4 600 м
[Cu hum Ac trans]
+28.6 +8.3 28 +28 +32 жарко 1008.9 1006.7
штиль 0 10 км 6 баллов +29.6 +7.5 25 1007.4 1005.3 +30.8
Ю 2 20 км 6/6 600 м
[Sc diur, vesp]
+24.7 +12.0 45 +26 +26 жарко 1008.9 1006.7
Ю 1 20 км 6/0
[Ac trans]
+22.0 +12.3 54 +24 +24 комфорт 1010.2 1008.0
ЮВ 1 20 км 6/0
[Ac trans]
+18.8 +13.9 73 +21 +21 комфорт 1008.9 1006.7
Ю 3 10 км 8/0
[Ac trans]
+20.5 +14.4 68 +23 +24 комфорт 1010.0 1007.7 +18.7
ЮВ 2 10 км 9/0
[Ac trans]
+26.0 +12.1 42 +27 +29 жарко 1010.2 1008.0
ЮВ 3 10 км 9/0
[Ac trans]
+28.1 +12.0 37 +29 +31 жарко 1010.2 1008.0
ЮВ 4 10 км 9/0
[Ac trans]
+29.8 +11.3 32 +30 +31 жарко 1008.8 1006.7
ЮВ 4 10 км 10 баллов +28.8 +10.4 32 +29 +29 жарко 1008.9 1006.7 +30.5
В 2 20 км 8/0
[Ac trans]
+25.6 +7.7 32 +26 +26 жарко 1008.9 1006.7
ЮВ 2 20 км ясно +21.9 +11.0 50 +24 +24 комфорт 1008.9 1006.7
В 3 20 км 10/0
[Ac As]
+22.3 +15.4 65 +26 +26 жарко 1006.2 1004.0
СВ 2 10 км 9/0
[Ci sp]
+21.1 +15.4 70 +24 +24 комфорт 1008.9 1006.7 +20.3
СВ 2 10 км 8/0
[Ci fib]
+28.5 +11.1 34 +29 +33 жарко 1007.5 1005.3
В 3 10 км 9/0
[Ac trans]
+31.5 +8.5 24 +30 +32 жарко 1007.4 1005.3
В 5-10
{10}
10 км 9/9 600 м
[Sc]
+32.7 +9.5 24 +32 +32 жарко 1004.8 1002.7
ЮВ 6-10
{11}
10 км 10/10 600 м
[Sc]
+30.8 +10.2 28 +31 +31 жарко 1006.1 1004.0 +33.2
С 1
{11}
20 км {ливн. дождь} 9/0
[Ci fib]
+22.2 +17.1 73 +27 +27 душно 1007.5 1005.3
СЗ 1 20 км 8/0
[Ci fib]
+20.5 +18.6 89 +25 +25 комфорт 1007.5 1005.3
СЗ 3 4000 м дымка {ливн. дождь} 8/0
[Ci fib]
+20.5 +19.8 96 +25 +25 комфорт 1007.5 1005.3
штиль 0 4000 м дымка ясно +20.4 +19.4 94 +24 +26 комфорт 1008.9 1006.7 +19.6 2
штиль 0 10 км 6/3 600 м
[Cu hum Ac trans]
+26.9 +19.2 63 +32 +41 очень
душно
1008.9 1006.7
В 5 10 км 6/6 600 м
[Cu hum]
+32.0 +18.6 45 +37 +41 очень
душно
1008.8 1006.7
В 7-11
{12}
10 км 3/3 600 м
[Cu hum]
+33.6 +14.1 31 +35 +38 душно 1007.4 1005.3
В 6-10
{14}
10 км 8/0
[Ac trans]
+30.5 +11.9 32 +31 +31 жарко 1008.8 1006.7 +33.9
ЮВ 1
{10}
20 км 8/0
[Ac trans]
+25.7 +13.2 46 +28 +28 жарко 1010.2 1008.0
СВ 4 20 км 10 баллов +23.9 +14.3 55 +26 +26 жарко 1010.2 1008.0
С 3 20 км 10/10 600 м
[Sc]
+20.5 +15.5 73 +24 +24 комфорт 1010.2 1008.0
СВ 5
{10}
10 км {дождь} 9/9 600 м
[Sc]
+20.4 +13.8 66 +23 +23 комфорт 1010.2 1008.0 +20.4 1
СВ 2 10 км {ливн. дождь, дождь} 8/5 600 м
[Cb calv Ac trans]
+21.0 +14.9 68 +25 +28 комфорт 1011.5 1009.3 +19.2
СВ 4 10 км 8/4 600 м
[Sc Ac trans]
+26.6 +9.0 33 +27 +31 жарко 1011.5 1009.3
СВ 5
{11}
10 км 4/4 600 м
[Sc]
+30.1 +6.0 22 +29 +32 жарко 1010.2 1008.0
СВ 3
{11}
10 км 8/6 600 м
[Sc Ac trans]
+27.8 +7.6 28 +27 +28 жарко 1011.5 1009.3 +30.2
штиль 0 20 км 8/8 600 м
[Sc]
+25.2 +9.1 36 +26 +26 жарко 1012.9 1010.7
СЗ 2 20 км 10/10 600 м
[Sc]
+22.1 +13.7 59 +25 +25 комфорт 1012.9 1010.7
штиль 0 20 км 6/0
[Ac trans]
+19.3 +13.9 71 +21 +21 комфорт 1011.5 1009.3
штиль 0 10 км 8/0
[Ac trans]
+19.6 +12.7 64 +21 +22 комфорт 1012.9 1010.7 +17.4
С 1 10 км ясно +25.9 +13.0 45 +28 +42 жарко 1012.9 1010.7
С 3 10 км 9/0
[Ac trans]
+30.2 +6.1 22 +29 +30 жарко 1012.9 1010.7
С 1 10 км ясно +33.5 +5.9 18 +31 +45 жарко 1011.4 1009.3
ЮВ 4 10 км 9/0
[Ac trans]
+31.7 +11.5 29 +32 +32 жарко 1011.4 1009.3 +33.9
ЮВ 5
{10}
20 км ясно +23.8 +16.1 62 +27 +27 жарко 1012.9 1010.7
В 4 20 км ясно +20.7 +15.7 73 +24 +24 комфорт 1014.2 1012.0
СВ 2 20 км ясно +18.6 +15.3 81 +20 +20 1014.2 1012.0
В 3 10 км ясно +19.3 +14.5 74 +21 комфорт 1014.2 1012.0 +18.0
ЮВ 5 10 км ясно +26.4 +11.3 39 +28 +34 жарко 1014.2 1012.0
В 3 10 км ясно +30.1 +10.6 30 +30 +46 жарко 1012.9 1010.7
В 3 10 км 4 балла +31.0 +9.8 27 +31 +37 жарко 1011.4 1009.3
ЮВ 5 10 км 8/0
[Ac trans]
+29.5 +8.0 26 +29 +29 жарко 1011.2 1009.0 +32.2
Местоположение метеостанции Южно-Сухокумск (Дагестан, Россия): широта 44.65 долгота 45.65 высота над уровнем моря 19 м.
В архиве по умолчанию представлена погода в Южно-Сухокумске за последнюю неделю. Архивные данные за месяц целиком и за предыдущие месяцы, начиная с января 2011 года, Вы можете получить, выбрав интересующий диапазон дат из раскрывающегося списка и нажав кнопку "Найти!".
*Определитесь, кто Вы:
Внимание! Время в таблицах - всемирное. Для получения местного времени необходимо прибавить поправку, которая равна 3 ч.
Смотрите также архив погоды в соседних городах и на ближайших метеорологических станциях:
Партнеры нашего сайта:      
Пояснения к столбцам:
  • Ветер - указаны скорость ветра в м/с - средняя за 10 мин, порывы в срок и между сроками (в фигурных скобках) и направление, откуда дует ветер: С - северный,
  • СВ - северо-восточный, В - восточный, ЮВ - юго-восточный, Ю - южный, ЮЗ - юго-западный, З - западный, СЗ - северо-западный.
  • Видимость - горизонтальная дальность видимости в метрах или километрах. При видимости от 1 до 10 км при отсутствии осадков обычно наблюдается дымка, при ухудшении видимости до 1 км и менее - туман. В сухую погоду видимость может ухудшаться дымом, пылью или мглою.
  • Явления - указаны атмосферные явления, наблюдавшиеся в срок или в последний час перед сроком; фигурными скобками обозначены явления, наблюдавшиеся между сроками (за 1-3 часа до срока); квадратными скобками обозначены град или гололедные отложения с указанием их диаметра в мм.
  • Облачность - указаны через наклонную черту общая и нижняя облачность в баллах и высота нижней границы облаков в метрах; квадратными скобками обозначены формы облаков: Ci - перистые, Cs - перисто-слоистые, Cc - перисто-кучевые, Ac - высококучевые, As - высокослоистые, Sc - слоисто-кучевые, Ns - слоисто-дождевые, Cu - кучевые, Cb - кучево-дождевые. Подробнее классификацию облаков см. в Атласе облаков (PDF).
  • T - Температура воздуха - температура, измеренная на высоте 2 м над землей.
  • Td - Температура точки росы - температура, при понижении до которой содержащийся в воздухе водяной пар достигнет насыщения.
  • f - Относительная влажность воздуха - влажноcть воздуха, измеренная на высоте 2 м над землей.
  • Te - Эффективная температура - температура, которую ощущает одетый по сезону человек в тени. Характеристика душности погоды. При расчете учитывается влияние влажности воздуха и скорости ветра на теплоощущения человека.
  • Tes - Эффективная температура на солнце - температура, которую ощущает человек, с поправкой на солнечный нагрев. Характеристика знойности погоды. Зависит от высоты солнца над горизонтом, облачности и скорости ветра. Ночью, в пасмурную погоду, а также при ветре 12 м/с и более поправка равна нулю.
  • P - Атмосферное давление - приведенное к уровню моря атмосферное давление.
  • Po - Атмосферное давление - измеренное на уровне метеостанции атмосферное давление.
  • Tmin - Минимальная температура - минимум температуры воздуха на высоте 2 м над землей.
  • Tmax - Максимальная температура - максимум температуры воздуха на высоте 2 м над землей.
  • R - Количество осадков - Количество выпавших осадков за период времени, мм. При наведении курсора мыши на число - период времени, за который выпало указанное количество осадков.
  • R24 - Количество осадков - Количество выпавших осадков за 24 часа, мм.
  • S - Снежный покров - Высота снежного покрова, см. При наведении курсора мыши на число - состояние снежного покрова и степень покрытия местности в баллах.